Regional Weather Roundup
Issued by NWS Glasgow, MT

Home | Current Version | Previous Version | Text Only | Print | Product List | Glossary On
Versions: 1 2 3 4 5 6 7 8 9 10 11 12 13 14 15 16 17 18 19 20 21 22 23 24 25 26 27 28 29 30 31 32 33 34 35 36 37 38 39 40 41 42 43 44 45 46 47 48 49 50
000
ASUS45 KGGW 312215
RWRGGW
HOURLY REGIONAL WEATHER ROUNDUP FOR NORTHEAST MONTANA
NATIONAL WEATHER SERVICE GLASGOW MONTANA
400 PM MDT TUE MAY 31 2016

NOTE: "FAIR" INDICATES FEW OR NO CLOUDS BELOW 12,000 FEET WITH NO
SIGNIFICANT WEATHER AND/OR OBSTRUCTIONS TO VISISBILITY.

NORTHEAST MONTANA


CITY           SKY/WX    TMP DP  RH WIND       PRES   REMARKS
GLASGOW        PTSUNNY   62  43  49 N30G37    30.01R
PLENTYWOOD       N/A     56  49  77 N20G32      N/A
WOLF POINT     CLOUDY    65  47  52 N17G28    29.95F
JORDAN           N/A     58  50  75 NW24      30.06
WINNETT          N/A     58  42  55 W22         N/A
SIDNEY         CLOUDY    57  50  77 N21       29.91R
GLENDIVE       CLOUDY    55  50  82 NW20G30   29.97F
MALTA            N/A     62  48  60 W12G22      N/A
SCOBEY           N/A     57  43  59 NW22G28   29.96R
OPHEIM           N/A     55  45  67 N15       29.85R

FORT PECK REPORTS


CITY           SKY/WX    TMP DP  RH WIND       PRES   REMARKS
FORT PECK        N/A     63  47  55 NW25G40     N/A
THE PINES        N/A     58  46  64 W12G21      N/A

SOUTHEAST MONTANA


CITY           SKY/WX    TMP DP  RH WIND       PRES   REMARKS
BILLINGS       MOSUNNY   63  37  38 N13G20    30.14F
MILES CITY     CLOUDY    60  50  69 NW12      30.02F
BAKER          LGT RAIN  51  32  48 NW17G31   29.98R
LIVINGSTON     PTSUNNY   62  34  35 W10       30.17S

CENTRAL MONTANA


CITY           SKY/WX    TMP DP  RH WIND       PRES   REMARKS
HAVRE          CLOUDY    62  46  55 NW16      30.13F
LEWISTOWN      CLOUDY    55  43  63 NW6       30.18F
GREAT FALLS    SUNNY     62  33  33 NW15      30.17F
CUT BANK       MOSUNNY   62  32  32 N12       30.17F
HELENA         SUNNY     66  33  29 NE8       30.17F
BUTTE          MOSUNNY   59  27  29 CALM      30.18F
BOZEMAN        MOSUNNY   62  35  36 N3        30.19F

WESTERN MONTANA


CITY           SKY/WX    TMP DP  RH WIND       PRES   REMARKS
MISSOULA       SUNNY     72  33  24 NE7       30.12F
KALISPELL      NOT AVBL

NORTH DAKOTA


CITY           SKY/WX    TMP DP  RH WIND       PRES   REMARKS
WILLISTON      LGT RAIN  54  49  83 N20G32    29.87R
DICKINSON      LGT RAIN  49  45  86 NW31G40   29.82R
MINOT          CLOUDY    68  55  63 NW25G33   29.65R THUNDER
BISMARCK       CLOUDY    58  52  80 NW6       29.64S

SOUTHERN SASKATCHEWAN


CITY           SKY/WX    TMP DP  RH WIND       PRES   REMARKS
REGINA         CLOUDY    54  50  87 N15G21    29.96R
MOOSE JAW      PTSUNNY   55  50  82 N15G24    29.99R
ESTEVAN        LGT RAIN  52  50  93 NW25G33   29.83R FOG
SWIFT CURRENT  LGT RAIN  55  48  76 N18G26    30.03F




USA.gov is the U.S. government's official web portal to all federal, state and local government web resources and services.